Theta_e
349 350 352 351 351 351 351 351 350 350 351 351 351 351 352 352 352 351 349 350 351 352 351 349 348 346 346 347 347 347 348 349 349 349 349 349 351 351 350 348 346 344 341 340 342 342 342 342 341 340 339 335 332 327 324 323 322 323 323 324 325 325 326 326 327 328 329 331 332 333 334 334 334 334
349 352 352 351 351 351 351 351 351 351 351 351 351 351 351 351 351 350 350 349 350 351 350 347 346 346 346 346 347 347 348 349 349 349 350 350 350 351 352 352 351 349 346 342 341 342 343 344 343 343 342 341 340 338 335 331 327 324 323 322 322 322 323 324 324 324 324 326 327 328 330 331 331 331
349 351 351 351 351 351 352 352 352 352 351 351 351 351 351 351 350 349 349 349 349 350 350 348 346 345 344 344 346 347 347 349 351 351 350 350 350 351 351 352 352 352 350 346 343 342 342 343 344 345 344 343 342 342 341 340 338 335 332 328 326 324 322 322 323 323 324 325 325 325 325 326 326 326
347 348 349 350 352 352 352 352 352 352 351 351 351 351 351 351 350 350 349 349 350 349 351 351 350 349 348 349 349 350 349 350 351 352 351 350 350 351 351 351 352 352 352 350 346 343 342 343 344 344 345 345 345 344 343 343 342 342 340 339 336 333 331 327 325 323 323 324 324 325 327 327 328 329
347 347 348 350 351 352 352 352 352 351 350 351 351 351 351 351 350 350 349 349 349 349 350 351 351 351 352 352 352 351 351 351 352 352 352 352 351 351 351 351 352 352 352 352 350 346 343 343 343 344 345 346 346 346 346 345 345 344 343 343 342 341 340 338 336 333 330 326 325 324 324 325 327 328
346 347 347 349 351 352 351 352 353 352 350 351 351 351 350 350 349 349 349 348 348 348 349 350 350 351 352 352 351 350 350 350 351 351 351 351 351 352 351 351 352 352 351 351 351 349 345 343 342 344 345 347 347 347 347 347 347 347 346 345 344 344 343 343 342 341 340 337 335 331 328 326 324 324
347 348 347 347 348 349 348 348 351 353 352 352 351 349 348 348 348 348 348 348 348 348 348 349 350 351 352 351 351 351 350 349 350 350 350 350 351 351 351 351 351 351 351 350 350 350 349 347 345 345 345 346 347 348 348 348 348 348 348 348 347 346 346 345 344 344 344 343 342 341 339 336 334 331
349 348 347 345 345 346 346 344 347 351 352 351 350 349 349 349 348 347 347 347 348 348 348 348 349 350 350 350 350 350 350 350 350 349 349 349 349 350 350 351 351 351 350 350 350 350 350 349 349 348 347 347 346 347 348 348 349 349 349 349 348 348 347 347 346 346 345 345 345 344 344 343 342 341
349 348 346 346 346 347 347 346 347 350 351 350 349 349 350 349 347 347 347 347 348 348 347 347 347 349 349 349 349 348 348 349 350 349 349 349 349 349 350 351 351 351 351 349 348 348 348 348 348 348 348 348 347 347 347 347 348 348 349 348 348 349 348 348 348 347 347 347 346 346 346 345 345 344
350 349 347 347 348 347 347 347 348 349 350 349 348 348 348 348 347 347 347 347 347 347 347 347 347 348 349 348 348 347 348 349 349 348 348 349 349 349 350 351 351 350 350 350 348 348 348 347 348 348 348 348 348 347 347 347 347 348 348 349 349 349 348 348 348 348 348 348 348 347 347 347 347 347
351 349 348 348 348 348 349 348 347 348 349 349 349 348 347 347 346 347 347 347 347 346 347 348 348 349 348 348 348 348 349 350 349 348 347 348 349 349 349 350 350 350 350 350 349 349 348 348 348 348 348 348 348 348 348 347 348 348 349 349 349 349 349 349 348 348 348 348 348 347 347 347 347 347
351 350 349 348 348 349 350 348 346 347 348 348 348 348 348 347 347 348 347 347 347 347 347 347 348 349 349 348 348 349 349 349 349 348 347 348 349 349 349 349 349 349 349 349 349 349 349 349 349 349 349 349 349 348 348 348 349 349 349 350 350 349 349 348 348 349 349 349 349 348 347 347 348 348
351 351 350 348 348 348 347 345 346 347 348 347 347 348 348 348 348 348 348 346 346 346 346 346 347 348 348 349 348 349 349 349 349 349 348 348 348 349 349 348 348 348 348 349 349 349 349 349 348 349 349 349 348 347 348 348 348 349 349 349 349 349 348 348 348 348 348 348 348 348 348 348 347 348
351 350 349 349 349 348 346 345 347 349 348 347 347 347 348 348 348 348 346 345 346 346 346 346 347 347 347 348 348 348 348 348 348 348 348 348 349 349 349 348 347 347 347 347 348 348 347 347 347 347 347 347 347 347 347 347 347 347 348 348 348 348 348 348 347 347 347 348 348 348 348 348 348 348
351 351 350 349 349 349 347 346 348 349 348 347 347 347 348 349 348 347 346 346 346 347 347 347 347 347 346 347 348 348 348 348 347 348 348 348 348 348 348 348 347 346 346 347 346 346 346 346 346 346 346 345 345 345 345 345 345 345 345 346 346 346 346 345 344 345 346 346 347 347 346 347 347 347
352 351 351 351 350 350 348 348 348 348 347 347 348 348 348 348 347 347 347 347 347 346 347 347 346 347 347 347 347 347 347 347 348 348 348 347 347 347 347 347 346 346 346 346 346 345 345 345 345 345 344 343 343 342 342 342 342 342 342 342 343 343 343 342 341 341 342 343 344 344 343 344 344 344
352 352 351 351 350 350 350 349 349 348 347 347 348 348 348 347 347 347 347 347 345 345 346 346 346 347 348 347 346 346 347 348 348 348 348 347 346 346 346 346 346 345 345 345 345 344 343 343 344 343 341 340 340 340 339 338 338 338 339 339 340 339 337 337 336 337 337 337 338 338 338 339 339 339
352 351 350 348 348 349 350 349 349 348 348 349 349 348 348 347 346 346 345 345 344 344 344 345 345 346 346 345 345 346 347 347 348 347 347 346 346 345 345 345 344 344 344 344 345 343 341 341 343 340 337 336 337 336 335 334 333 333 333 333 334 334 332 331 331 331 332 332 332 332 333 333 334 334
351 350 348 346 346 348 350 350 350 349 349 349 348 348 347 347 346 344 344 343 343 342 343 344 345 345 344 345 346 346 345 345 346 346 346 345 344 344 343 343 342 343 343 342 343 342 339 338 339 336 332 332 333 331 330 330 328 327 327 327 328 328 328 328 327 327 328 328 329 330 331 331 332 332
350 348 347 346 346 348 350 351 351 350 349 348 348 347 346 345 344 343 342 342 341 341 342 343 343 343 342 342 342 342 343 343 344 345 344 344 343 343 343 342 341 341 341 340 340 340 337 336 336 333 329 329 328 326 325 325 324 323 323 323 323 323 323 323 323 323 323 323 324 326 328 329 330 330
348 347 347 347 346 348 350 351 350 350 349 347 347 346 345 344 342 341 340 340 339 339 339 338 338 338 337 337 338 339 340 342 343 344 344 343 342 342 342 341 339 339 338 338 339 339 336 334 333 331 328 326 324 323 322 323 322 321 320 320 319 319 318 319 319 320 320 319 319 321 323 326 327 328
348 348 348 347 346 347 350 350 350 349 347 346 346 345 344 342 340 339 339 337 336 336 335 334 334 334 334 335 336 338 339 340 341 342 342 341 340 341 340 339 338 337 336 336 337 338 336 333 333 331 328 325 323 322 323 323 322 321 320 319 319 318 317 316 316 317 317 317 317 317 318 319 322 324
347 348 348 348 347 348 350 350 349 348 346 345 344 344 342 341 339 337 337 335 333 333 332 332 332 332 333 334 335 337 338 339 339 339 339 339 339 339 338 336 336 335 333 333 334 335 335 334 332 331 329 326 324 324 325 325 323 322 321 320 319 318 317 316 315 315 316 316 316 316 315 315 317 320
347 348 349 349 348 348 349 349 348 346 345 344 344 342 341 339 337 335 334 331 330 330 330 329 329 328 329 329 330 331 332 332 333 333 333 333 335 337 336 334 332 330 329 330 331 333 334 334 333 331 329 326 324 324 325 325 324 322 321 320 319 318 317 316 315 315 315 315 315 315 315 315 315 317
347 348 349 350 349 349 348 347 346 345 344 343 342 340 339 337 335 334 331 327 325 326 326 325 323 321 321 321 321 320 320 321 321 321 322 321 323 325 326 326 324 323 324 327 329 331 332 332 331 331 329 326 324 323 324 325 324 323 322 321 320 318 317 316 315 315 314 314 315 315 315 315 315 315
348 349 349 349 348 348 347 346 345 344 342 340 340 339 337 335 332 329 326 321 318 318 318 317 316 315 315 315 315 316 316 316 316 315 314 313 313 313 313 314 313 314 317 321 326 329 330 329 327 328 327 326 324 322 322 323 325 324 323 321 320 319 318 317 316 316 315 315 316 316 315 315 315 315
349 349 348 347 346 346 346 344 343 341 340 338 337 335 332 328 324 320 317 314 312 312 312 312 313 314 314 314 314 315 316 317 317 316 315 313 312 310 309 309 309 310 311 313 316 320 323 324 323 324 324 324 323 321 320 322 325 325 322 320 319 318 317 317 317 316 315 316 317 317 316 316 316 315
349 347 345 344 345 345 344 342 340 338 337 334 331 327 323 319 316 313 311 310 309 309 310 310 312 314 315 314 314 314 316 318 319 319 317 316 315 313 311 310 309 309 309 310 312 313 314 315 317 320 322 321 320 318 318 322 324 323 320 318 318 317 315 315 316 315 315 317 318 317 316 316 315 314
341 345 344 343 344 343 341 338 335 333 330 326 321 319 317 314 312 311 310 310 309 309 308 308 309 311 313 315 315 315 315 318 321 320 318 319 320 319 316 314 312 310 309 310 312 314 314 313 315 318 320 319 317 316 319 322 322 319 317 316 315 314 312 312 314 315 316 318 318 317 316 315 314 314
329 338 342 341 339 336 333 331 327 323 321 318 315 314 314 313 312 311 311 311 311 310 310 309 308 309 311 314 317 318 317 318 321 322 320 320 321 321 319 317 315 314 312 310 310 314 316 316 316 317 318 317 316 315 317 319 318 315 313 312 312 311 310 310 313 314 315 317 317 316 315 314 314 313
326 331 335 334 330 327 324 322 319 317 316 315 313 313 313 313 313 314 314 314 313 313 313 312 312 310 309 310 314 317 319 319 320 322 322 322 322 321 320 318 317 315 314 310 307 310 315 317 316 317 317 317 315 313 314 314 314 312 312 311 311 310 309 309 309 311 313 314 315 315 315 314 314 313
329 329 328 325 322 319 317 316 315 315 314 314 313 313 313 313 314 314 314 313 313 314 314 314 314 313 311 310 311 314 317 319 320 320 321 320 320 319 318 317 315 313 311 309 306 308 313 316 316 316 316 316 314 313 313 314 313 312 312 311 310 309 308 307 306 307 309 311 313 314 314 313 312 311
327 325 322 319 317 315 314 313 314 313 313 313 312 312 312 312 313 313 313 314 315 317 317 316 314 312 312 313 312 311 313 316 317 318 318 318 317 317 315 314 312 310 309 307 306 308 312 316 316 316 315 315 314 314 314 314 313 312 312 311 310 308 307 306 305 305 306 308 310 311 310 309 308 308
321 319 317 315 314 313 311 311 311 311 310 310 311 311 311 311 311 311 312 313 315 316 316 315 313 312 313 314 314 312 312 312 313 314 315 314 314 313 312 312 312 311 310 308 306 308 312 315 316 315 314 314 314 315 315 313 312 312 311 310 308 307 306 305 304 305 306 307 307 307 306 305 305 304
317 316 315 313 312 311 310 310 309 309 310 310 311 311 311 312 312 312 312 312 313 314 314 313 313 314 315 315 315 314 314 313 313 313 314 313 312 311 312 313 312 311 310 309 307 307 312 315 315 315 315 315 314 314 313 312 311 311 310 309 307 306 305 304 304 305 306 306 305 304 304 303 302 302
314 313 312 311 311 310 310 310 311 311 312 312 313 313 313 313 313 313 313 313 313 314 315 314 314 315 315 315 315 314 313 312 312 314 315 314 313 312 312 312 312 310 310 309 307 307 310 313 315 315 315 314 314 312 310 310 310 310 309 308 307 306 304 304 304 304 305 305 304 303 303 303 302 302
312 311 311 311 311 311 311 312 313 313 313 314 314 314 313 313 312 312 312 313 314 315 315 315 314 314 314 314 313 313 311 310 310 312 314 313 312 312 312 311 311 310 309 309 307 305 307 309 310 311 311 311 310 310 310 310 310 309 308 308 307 305 304 304 304 304 304 304 303 303 303 303 302 302
310 311 311 311 312 312 313 314 314 314 314 314 313 313 312 312 311 310 311 312 314 314 315 314 314 313 313 313 312 312 311 310 309 310 312 312 312 311 311 311 310 309 308 307 306 305 306 307 307 308 308 308 309 310 310 309 309 308 307 306 305 304 304 304 304 304 304 304 304 303 303 303 302 302
312 312 312 313 314 314 314 314 314 313 313 312 312 311 310 310 309 309 309 311 312 313 314 313 313 312 312 311 311 310 310 309 309 309 309 310 310 310 310 310 310 309 308 306 305 304 305 306 307 307 307 306 307 309 309 308 307 307 306 305 304 304 304 304 304 303 304 304 304 303 303 303 302 302
313 313 313 314 314 314 314 314 313 312 311 310 309 308 308 307 307 307 308 309 310 311 311 312 311 311 310 309 309 309 308 308 308 308 308 309 309 309 309 309 309 309 308 306 305 304 305 306 307 307 306 305 306 307 307 307 307 307 305 304 304 304 304 303 303 303 304 305 304 303 303 303 302 302
313 314 314 315 315 314 314 313 312 311 310 309 308 307 306 305 305 307 309 310 310 310 310 310 310 309 309 309 309 308 308 308 307 307 307 308 308 308 308 308 308 307 307 306 305 305 305 306 306 307 306 305 305 305 305 306 307 307 305 305 305 304 303 303 303 303 304 304 304 304 303 303 303 303
314 314 314 314 314 313 312 312 311 311 310 309 308 308 306 304 304 307 310 311 311 311 310 309 309 308 307 308 308 307 307 307 306 306 307 307 307 307 308 308 308 307 306 306 306 306 305 305 305 306 305 305 304 304 304 305 306 307 307 305 304 304 303 303 303 303 303 303 303 304 304 304 304 304
315 314 313 313 312 312 312 312 311 311 310 310 310 309 307 305 305 307 309 310 309 309 309 308 307 306 306 307 307 307 306 306 306 306 306 306 306 306 306 307 307 307 306 305 305 305 305 305 305 304 304 304 304 304 304 304 305 306 306 304 303 303 303 303 302 302 302 303 303 303 303 303 303 303
314 313 313 313 313 312 312 312 311 311 311 310 311 310 308 305 305 306 307 308 308 308 308 308 307 306 306 306 307 307 306 306 306 306 306 305 305 305 305 305 306 306 306 305 305 305 305 304 304 304 303 303 303 303 303 303 303 304 304 303 302 302 302 302 301 301 302 302 302 302 302 302 302 302
314 314 313 313 313 313 312 311 312 312 311 311 312 311 308 305 304 305 306 307 308 308 308 308 308 307 306 306 306 306 306 306 306 306 305 305 305 304 304 304 304 305 306 305 304 304 304 304 304 303 303 302 302 302 303 303 303 302 302 302 302 302 301 301 301 301 301 302 301 301 301 301 300 300
Wind_Speed
7 6 7 7 6 6 6 5 5 5 6 6 7 8 8 9 10 10 10 8 6 7 9 7 6 5 4 2 1 2 3 2 2 3 1 3 3 3 2 3 3 3 3 4 5 5 5 5 4 4 4 4 4 4 4 5 5 6 7 7 8 9 10 10 10 10 11 12 13 14 15 16 17 17
8 8 9 7 6 6 6 7 7 7 7 7 7 7 6 7 8 9 10 10 9 10 12 11 10 9 6 3 2 1 1 0 3 4 3 1 2 3 3 2 3 3 3 3 4 4 3 3 3 3 3 3 3 3 3 3 4 4 4 5 6 7 7 8 9 9 10 11 13 14 15 16 17 17
9 11 10 8 7 8 8 9 10 9 8 6 5 5 5 6 7 8 9 10 9 10 12 11 10 10 8 7 5 3 2 1 4 6 6 5 6 6 6 5 5 5 4 4 4 4 4 3 3 3 3 3 3 3 3 4 4 4 4 4 5 5 6 7 7 8 9 10 12 13 14 15 16 16
11 11 11 10 9 9 10 10 11 9 8 7 6 7 7 7 8 8 9 11 10 9 9 9 9 8 7 7 5 3 3 2 4 7 9 9 7 7 7 7 6 6 6 6 6 6 6 5 5 4 4 3 3 3 4 4 5 5 6 6 6 6 7 7 7 8 9 10 11 12 13 13 14 15
11 12 12 11 10 11 11 10 10 10 9 9 8 8 9 10 10 11 12 13 12 10 9 9 8 7 7 6 5 5 4 3 5 7 8 8 7 6 6 6 7 7 8 8 8 8 7 7 7 7 7 6 6 5 5 5 5 6 6 7 7 8 8 9 9 9 10 10 11 12 13 13 14 15
11 11 11 11 12 14 12 9 8 9 10 9 10 11 12 12 12 13 13 14 13 11 9 8 8 7 7 7 7 8 7 6 7 8 8 8 7 8 7 7 7 7 7 8 9 9 8 9 9 9 9 9 8 8 7 7 7 7 7 7 8 8 9 10 10 11 12 12 12 13 13 14 14 15
10 11 12 13 15 15 13 10 10 10 10 11 12 12 11 12 12 13 13 13 12 11 9 8 9 8 7 8 8 8 8 7 7 8 9 8 8 9 9 9 8 8 7 7 8 9 9 10 10 11 11 11 11 11 10 10 10 10 10 10 10 10 10 10 11 11 12 13 14 14 15 15 15 16
11 12 13 13 14 14 13 11 10 9 10 12 12 10 10 11 11 11 11 10 10 10 9 9 9 9 8 8 7 7 7 7 7 7 8 9 10 10 9 8 8 7 8 7 8 10 11 12 12 13 14 14 14 14 14 13 13 13 14 14 13 13 13 13 13 13 13 13 13 14 15 16 17 18
12 12 13 13 13 13 12 11 10 9 10 11 10 9 10 11 11 10 9 9 9 9 9 9 9 8 8 8 7 7 7 8 8 7 8 9 10 9 7 7 7 8 8 7 7 9 11 12 13 13 15 16 17 17 16 16 16 16 17 16 16 17 16 16 16 16 16 15 15 15 15 16 17 18
12 12 13 13 13 12 12 11 11 11 10 9 9 9 10 11 11 11 10 10 10 10 9 9 8 8 8 9 9 8 7 7 8 8 8 9 8 8 8 7 6 6 6 6 6 7 9 10 11 12 14 16 17 17 18 18 18 19 19 18 18 18 18 18 18 18 18 18 18 18 19 19 19 20
12 11 12 13 13 12 12 11 11 11 10 9 10 11 11 11 12 12 11 11 11 11 10 9 10 10 10 9 9 8 7 6 7 7 8 9 8 8 8 7 6 5 4 5 6 6 7 8 9 10 11 12 13 15 17 17 18 20 20 19 19 19 20 21 21 20 20 20 20 20 21 21 22 24
12 11 10 11 11 12 12 12 12 12 11 11 12 12 11 11 11 11 12 13 13 12 11 10 11 11 11 10 9 7 7 6 6 6 8 10 9 8 7 7 6 4 4 5 4 4 5 6 6 7 8 9 11 12 14 15 16 17 17 17 18 19 20 21 22 21 21 21 21 21 22 24 24 25
13 12 11 10 10 12 13 13 12 11 11 12 12 12 11 11 11 11 12 14 14 14 14 13 12 11 10 10 8 7 7 6 6 6 8 10 10 9 8 7 5 4 4 4 3 3 4 5 5 6 7 7 6 5 7 10 12 13 14 15 16 17 19 20 22 21 21 21 21 22 23 25 25 26
16 15 14 13 12 13 14 13 11 11 12 12 12 12 11 11 12 12 14 15 14 14 15 14 13 12 10 9 8 8 7 7 7 7 8 10 11 11 8 7 6 4 4 4 5 4 3 5 5 5 5 5 4 4 4 6 6 7 9 10 12 12 12 12 13 14 16 18 19 21 22 23 24 25
19 16 16 15 15 16 16 13 12 12 13 12 12 12 11 11 12 13 14 15 14 15 15 14 13 13 12 10 10 9 8 7 6 6 7 8 9 10 8 7 6 5 4 5 5 4 2 3 4 3 2 1 3 3 3 3 4 5 6 7 8 9 10 10 9 7 8 12 13 15 16 18 21 22
19 17 17 16 16 17 16 15 13 13 12 11 11 10 10 11 12 12 13 14 14 15 14 13 13 13 13 13 12 10 8 6 5 6 6 7 7 8 8 7 6 5 4 4 5 5 3 3 3 2 2 3 4 5 5 5 6 7 8 8 8 10 12 14 13 10 7 9 10 11 12 14 17 19
19 18 17 16 16 17 17 16 14 12 12 11 11 10 11 11 11 11 13 14 15 14 12 11 12 13 13 13 10 7 8 9 7 7 7 7 7 6 6 6 7 6 4 5 6 7 6 2 3 3 6 6 6 6 7 7 8 8 8 8 9 10 11 11 11 10 9 10 11 11 12 13 16 18
19 18 17 16 16 17 17 16 14 13 12 12 12 11 11 10 11 12 13 12 10 8 7 7 9 11 10 7 4 5 9 11 10 7 6 6 6 5 5 5 6 6 6 7 8 8 8 5 4 7 10 9 8 8 9 9 9 9 9 8 8 8 9 10 10 10 9 9 10 10 10 11 12 14
21 19 18 17 17 17 17 16 15 14 13 12 11 10 9 9 10 11 9 6 4 3 3 4 5 6 4 3 3 4 5 6 7 7 5 5 4 4 5 7 6 7 8 7 6 8 11 9 8 12 13 12 11 12 11 11 12 12 11 10 9 9 9 10 10 10 10 10 9 10 10 10 10 11
23 21 19 17 17 17 16 16 15 14 13 11 10 9 8 8 9 8 5 4 3 2 3 3 3 3 2 2 2 2 1 2 4 6 5 5 5 5 7 9 8 9 8 5 5 8 12 10 10 14 16 14 15 15 14 14 15 15 14 13 13 12 12 11 11 11 12 12 11 11 11 11 11 12
24 22 20 18 17 17 16 16 15 14 13 11 8 8 8 8 8 8 6 4 3 2 2 2 2 2 2 1 1 2 3 3 3 4 4 6 7 6 7 9 10 10 9 7 7 11 13 11 11 15 17 17 18 18 17 17 18 18 17 16 16 16 15 15 14 14 14 14 14 13 13 12 12 12
26 24 22 19 18 18 18 17 16 14 12 9 8 8 9 11 11 9 6 5 4 4 3 5 5 5 5 5 4 5 5 5 3 2 2 5 6 4 5 8 11 11 10 9 8 10 12 12 11 13 16 17 18 18 18 18 18 18 17 17 17 18 18 17 17 17 16 16 16 16 15 14 13 12
27 26 23 21 19 19 18 16 15 13 10 8 9 10 12 14 13 9 6 5 6 7 8 8 9 9 9 8 8 8 7 7 5 4 3 4 4 4 6 9 11 11 10 8 6 7 10 11 10 10 13 15 16 15 15 16 17 17 17 17 17 19 19 18 18 18 18 18 18 17 16 15 14 13
29 27 25 22 21 19 18 16 14 11 9 10 11 14 15 15 12 9 8 8 10 11 12 12 12 12 13 13 13 13 11 10 9 9 9 7 3 4 8 10 10 10 11 9 5 5 7 9 8 8 10 12 14 14 13 14 15 15 14 14 15 17 17 18 19 19 19 19 18 17 16 16 15 15
31 30 27 25 22 19 17 15 14 14 15 16 16 16 14 12 10 10 10 12 13 14 14 14 13 13 14 14 15 16 16 16 15 14 14 14 11 9 9 9 9 11 12 10 6 5 7 8 7 7 9 11 12 12 11 10 11 11 9 10 12 14 15 17 18 19 19 19 18 17 16 16 16 17
33 31 28 25 22 19 19 19 19 21 22 21 18 14 11 11 12 13 14 15 14 14 14 13 13 13 13 13 14 16 17 17 16 15 15 14 13 13 11 10 9 10 11 9 7 6 7 8 7 6 7 9 10 10 9 9 8 6 5 7 10 12 14 16 17 18 18 18 17 16 15 15 16 16
35 31 27 24 22 21 24 26 26 26 25 21 17 16 16 17 17 17 17 16 15 15 14 14 14 14 13 14 14 15 16 16 15 14 14 13 12 12 12 11 11 11 10 7 6 5 6 7 7 6 5 6 7 7 8 9 8 4 4 8 11 13 15 15 16 16 16 16 15 13 13 14 15 16
36 33 29 27 26 27 30 30 29 28 26 23 22 22 22 20 19 18 18 17 17 16 16 15 16 15 14 14 14 14 14 14 13 12 11 11 11 11 12 12 12 12 11 7 5 4 4 5 7 6 5 5 5 5 7 9 8 4 5 8 10 12 14 14 13 14 14 12 11 10 11 13 14 14
35 40 37 33 34 35 33 32 31 29 27 26 25 24 21 19 18 17 17 17 16 16 16 15 15 15 13 12 12 12 12 12 12 10 8 9 9 9 9 10 10 11 10 8 6 5 4 4 5 5 5 4 4 6 7 9 8 6 7 8 8 11 13 13 12 12 11 9 7 8 10 12 12 11
34 47 49 43 40 39 35 33 31 29 28 26 24 22 20 18 17 16 16 15 14 14 15 15 14 14 12 10 10 9 9 10 11 8 6 6 7 6 6 6 7 9 9 8 6 4 3 4 4 4 4 5 7 8 7 6 7 7 8 9 10 11 13 14 12 10 9 7 6 8 10 10 10 11
34 44 48 42 39 37 34 31 29 26 25 24 22 21 19 18 17 15 14 13 13 13 14 14 14 13 11 9 9 8 9 10 11 9 7 5 5 3 2 4 6 8 8 8 6 4 3 3 3 3 3 5 7 7 5 4 7 9 11 12 13 13 13 14 13 11 8 6 6 7 8 8 9 11
28 34 36 35 33 32 31 31 29 26 24 23 21 20 18 17 16 14 13 12 12 12 11 12 11 11 10 10 9 9 9 10 11 9 7 6 5 2 2 2 4 6 6 6 6 5 4 4 4 5 4 4 6 6 4 4 8 11 12 13 13 13 13 14 15 13 9 6 5 5 6 7 8 9
28 28 30 31 31 30 29 29 27 25 23 22 20 19 17 16 15 14 12 11 11 10 9 8 7 7 8 9 9 8 8 9 8 6 5 5 4 2 2 2 5 6 7 8 7 6 6 5 6 6 5 4 4 3 3 4 7 10 12 13 13 14 15 17 17 14 9 6 4 5 6 7 8 9
31 31 32 31 30 28 28 27 25 24 23 21 20 19 17 16 15 14 12 12 11 10 9 7 6 6 6 7 8 7 7 6 5 4 4 4 3 3 2 4 7 8 9 11 10 8 6 5 6 6 6 3 1 1 3 5 8 10 12 13 14 15 17 18 16 12 9 7 7 7 8 9 11 11
32 32 31 30 28 27 27 26 25 23 22 20 19 18 17 16 14 13 12 11 10 9 9 8 8 7 6 6 6 6 6 5 4 4 4 4 2 0 1 5 8 8 10 12 12 8 5 5 5 6 5 2 0 2 4 7 9 11 11 12 14 17 18 17 13 9 8 9 9 9 10 11 13 13
30 29 29 28 27 26 26 25 23 21 20 19 18 16 16 14 13 11 11 10 9 8 8 8 8 7 6 6 5 5 5 4 5 6 6 4 3 2 3 6 9 9 9 12 12 8 4 4 5 5 4 3 2 2 4 7 8 9 10 12 14 16 16 14 10 8 8 9 10 10 11 12 14 15
28 27 27 27 26 25 24 23 21 19 18 17 15 14 12 12 11 10 10 10 10 9 9 8 7 6 5 3 3 3 5 5 6 7 6 5 5 4 4 6 8 9 9 10 10 7 4 4 4 5 4 3 3 3 3 5 7 8 9 11 13 13 12 10 8 7 7 7 8 10 11 11 12 14
26 26 26 26 25 23 22 21 19 17 15 13 12 11 10 10 10 10 10 11 11 10 10 9 8 6 4 2 1 1 3 6 7 7 7 6 6 6 6 5 6 8 9 9 8 7 5 4 4 4 4 5 6 6 5 6 6 7 8 9 10 9 9 7 7 7 7 6 6 8 10 10 10 11
24 24 24 24 23 21 19 18 16 14 13 11 10 9 9 9 9 9 10 11 11 10 9 8 7 6 4 3 2 2 2 4 6 7 7 6 6 6 5 4 3 4 5 6 6 6 5 6 7 7 6 6 7 6 7 7 6 5 6 6 5 5 7 7 7 8 8 7 4 5 8 7 6 8
21 21 21 20 19 17 16 15 14 13 13 12 10 9 9 8 7 8 9 10 10 9 8 7 6 5 5 4 4 3 3 4 5 6 6 5 5 5 5 4 3 1 1 3 5 6 6 7 8 7 6 7 5 3 4 5 4 4 4 4 3 3 6 7 7 8 9 6 4 5 6 6 5 6
19 18 17 15 14 13 13 13 13 13 13 12 12 10 9 7 7 7 8 9 9 9 9 8 6 5 6 6 5 4 3 3 4 4 4 3 4 5 4 3 3 1 1 1 5 7 7 6 5 3 4 5 3 1 1 4 5 7 5 2 1 2 5 7 9 10 9 8 6 6 5 5 5 7
17 16 15 14 13 12 11 11 11 11 12 12 12 10 9 8 7 7 9 9 8 8 9 8 7 6 6 6 5 3 3 3 4 3 3 3 2 4 4 3 3 2 2 3 4 6 5 5 3 1 2 4 3 1 2 4 6 8 5 2 1 1 4 8 10 10 11 11 9 8 7 6 6 8
16 16 16 15 14 13 12 11 11 10 10 10 10 9 8 7 7 8 10 9 9 8 8 8 7 7 6 5 4 4 4 4 4 3 2 2 1 1 3 3 4 4 4 4 5 5 4 3 2 2 2 4 4 4 3 3 4 6 4 2 2 4 6 9 10 10 10 10 9 7 7 7 7 8
15 15 15 14 13 13 12 11 10 8 8 8 7 7 7 5 6 9 11 11 10 9 8 6 6 6 5 4 3 3 3 4 3 3 4 4 3 2 0 2 4 5 5 5 5 4 3 2 1 1 4 5 5 4 3 2 2 1 1 3 6 9 11 12 12 10 8 8 6 6 7 8 9 10
13 13 13 13 12 12 11 10 7 5 4 4 5 7 7 4 5 8 10 11 10 9 8 6 5 4 3 2 2 1 1 2 2 4 5 6 6 5 3 1 3 6 7 7 6 5 3 2 1 2 5 6 6 4 2 2 2 2 5 7 9 12 14 14 11 7 5 5 6 7 9 10 11 11
Wind_Direction
257 257 249 251 267 275 277 284 280 274 279 284 291 301 307 308 311 319 326 332 331 326 331 335 326 313 294 273 235 203 202 218 274 269 212 152 149 141 129 127 115 106 103 100 96 88 86 93 102 112 120 123 133 146 164 179 190 199 204 207 209 213 219 225 228 229 228 230 235 238 241 243 244 247
252 244 241 246 257 257 260 273 277 281 289 290 288 293 302 301 297 305 316 322 324 323 328 333 329 327 324 312 296 238 196 281 281 271 256 231 231 222 215 194 166 152 141 136 136 127 110 105 110 118 132 146 155 160 168 180 191 202 208 213 218 223 227 231 234 233 230 229 232 236 239 242 245 247
245 240 243 250 256 259 265 272 279 288 287 276 273 281 287 290 292 298 304 309 315 319 322 321 315 316 315 309 311 319 331 314 268 263 254 253 261 257 250 239 212 195 183 171 171 176 176 168 158 153 153 163 175 185 192 200 207 218 224 225 228 233 237 240 243 242 240 239 239 241 244 246 249 251
246 247 248 248 252 262 266 269 277 282 265 248 251 263 269 276 283 288 291 296 301 305 303 296 295 298 293 295 305 306 310 293 255 254 252 256 266 266 257 244 229 220 211 201 193 192 200 205 203 199 194 193 194 198 207 212 217 223 230 236 239 240 242 244 246 247 246 245 245 246 247 248 250 252
249 251 249 246 250 255 258 264 273 268 251 250 258 260 264 274 280 285 290 293 294 293 288 282 285 287 276 274 281 280 282 271 246 247 253 262 269 266 256 242 235 236 230 220 211 206 210 216 220 218 215 214 215 218 223 225 227 229 229 235 240 242 244 244 245 247 248 249 249 250 251 251 252 253
247 247 248 246 245 245 245 243 246 249 249 256 268 271 272 279 284 288 291 291 291 292 289 281 279 277 266 265 277 285 284 272 254 247 250 255 256 254 251 246 244 245 242 232 223 219 217 221 227 228 226 227 229 232 236 239 243 244 242 241 242 245 248 249 249 249 250 251 251 252 254 255 257 258
240 242 245 243 242 246 250 244 233 239 254 268 276 278 280 283 286 289 290 290 291 293 291 283 277 271 265 270 280 285 284 280 270 257 252 249 247 246 243 244 248 252 252 245 234 229 227 230 235 237 236 236 238 240 242 245 248 251 252 252 251 251 251 252 253 252 253 254 255 255 256 257 258 260
239 243 245 244 246 251 255 257 250 248 264 277 282 285 288 289 288 288 289 288 287 289 290 285 278 274 272 273 276 277 278 278 272 263 256 251 248 246 242 243 247 248 248 248 245 241 238 238 241 243 243 242 241 242 245 248 251 253 254 254 254 254 253 254 254 253 254 256 258 260 261 261 261 260
244 248 250 247 249 253 254 259 262 261 270 282 286 287 288 287 286 286 285 285 286 287 287 283 279 277 278 279 281 284 281 273 262 258 255 249 246 246 246 246 246 245 242 241 246 247 241 238 239 243 244 242 240 242 244 248 252 256 258 257 254 253 252 252 253 254 255 255 257 262 263 263 264 265
254 257 253 247 248 254 256 258 259 259 266 276 277 274 274 277 282 285 286 289 292 290 286 283 278 277 280 285 290 289 279 266 261 257 252 245 240 239 244 243 241 242 240 234 237 242 241 238 240 244 245 242 240 241 245 249 252 256 261 262 259 258 256 254 253 253 254 254 256 259 260 262 265 267
260 262 256 250 251 255 256 256 256 256 259 264 265 264 266 272 279 285 291 294 294 292 289 286 283 281 281 284 288 288 276 262 259 253 245 242 240 240 240 238 236 231 226 230 235 239 243 242 244 248 249 247 246 247 251 255 256 256 259 261 263 263 262 259 257 255 254 254 254 255 256 259 262 263
256 258 257 255 256 255 252 253 255 256 257 259 263 264 268 276 282 288 293 294 293 292 291 288 285 282 283 284 285 285 278 264 252 239 233 233 232 232 227 223 225 223 219 231 237 235 240 240 242 249 251 251 250 248 250 256 259 259 259 260 262 262 262 261 261 260 260 260 259 258 258 260 260 262
247 250 253 255 256 250 245 247 251 254 259 263 263 263 268 278 284 287 291 294 296 296 294 291 286 280 282 282 279 274 270 263 251 237 232 227 219 215 209 196 192 198 198 202 197 204 241 251 249 249 249 249 249 244 246 255 261 264 265 265 265 265 263 261 260 260 262 265 265 264 263 263 264 266
247 249 253 259 258 249 245 247 247 249 259 265 266 267 272 278 281 284 289 293 294 292 292 293 290 288 288 282 274 270 265 257 249 238 231 224 211 203 196 177 168 182 191 190 185 188 234 254 248 248 254 260 273 279 268 264 270 276 279 277 274 272 270 266 264 261 260 263 264 263 263 265 268 272
246 246 252 257 254 249 249 251 250 250 258 265 267 271 273 275 277 281 286 289 288 287 287 286 284 285 288 284 276 270 261 248 242 234 226 219 203 192 190 177 170 182 191 198 196 180 210 264 257 241 252 305 318 317 319 320 319 319 318 308 292 292 305 317 327 318 277 265 265 265 265 266 268 273
241 244 250 251 246 245 248 251 251 252 257 262 263 263 266 271 277 282 286 287 286 283 277 271 270 274 278 279 276 268 254 233 216 207 203 199 187 185 193 188 179 182 186 197 189 158 154 262 257 190 100 46 24 16 15 4 346 335 335 331 319 317 321 326 334 339 316 291 287 285 281 277 275 278
237 243 245 245 242 242 245 246 245 249 257 261 259 258 265 273 278 284 287 285 282 277 267 260 262 265 268 273 275 258 230 208 187 176 178 180 183 195 201 181 169 176 191 204 188 150 137 215 231 139 87 60 44 34 28 20 8 358 352 345 335 334 338 340 341 340 329 317 312 308 302 294 292 293
239 241 241 244 248 247 246 241 238 245 255 258 255 257 265 274 282 286 285 281 277 270 258 253 255 256 259 265 262 233 213 194 177 176 188 189 191 201 191 162 157 167 182 197 191 156 138 151 153 109 85 70 60 51 44 37 31 24 19 13 1 355 0 6 6 2 354 344 336 331 327 320 315 312
236 240 243 247 251 250 244 237 237 248 255 252 249 254 261 269 278 280 274 266 262 245 228 238 247 248 248 241 229 234 225 187 169 178 195 194 194 190 166 151 153 159 163 177 183 149 130 127 116 97 85 75 67 63 59 52 45 40 36 33 29 25 24 24 25 25 22 15 6 360 357 354 352 349
233 240 245 247 248 246 239 235 240 248 249 246 244 247 254 260 259 249 228 211 208 203 206 218 230 229 221 235 239 229 224 173 174 181 180 175 180 175 155 148 153 158 157 168 186 149 126 116 107 96 85 75 71 67 63 57 50 45 43 41 39 37 34 31 29 28 27 24 21 18 15 13 13 12
233 239 243 244 244 242 238 239 242 241 241 241 233 231 241 238 220 199 184 177 176 182 176 139 122 114 113 128 129 109 112 131 175 204 188 165 166 166 156 151 147 144 138 137 156 150 129 116 110 99 86 74 70 68 64 58 53 49 46 46 46 44 41 38 36 34 33 31 29 29 28 27 25 22
234 236 237 238 239 238 237 237 237 238 240 234 220 223 224 206 186 170 165 167 157 147 123 99 94 94 100 113 124 126 128 129 148 228 198 157 162 161 153 154 149 142 133 129 146 154 137 122 114 104 92 81 75 71 69 64 56 52 50 49 49 49 46 44 42 41 40 38 37 37 37 36 36 33
234 234 233 234 234 232 231 230 228 228 229 218 209 212 201 181 166 156 155 152 137 130 122 110 106 104 104 110 118 126 138 147 159 175 149 150 190 178 148 153 153 141 127 120 143 168 152 137 127 114 100 91 84 77 73 68 62 58 55 51 51 51 49 47 46 44 42 40 39 39 39 41 42 40
233 232 232 230 227 224 222 223 218 207 208 210 200 194 188 174 161 155 147 131 127 130 127 119 113 109 109 110 110 111 115 120 125 124 114 112 136 163 150 155 153 135 119 115 134 171 160 150 144 127 110 102 97 90 82 74 69 65 58 50 48 51 50 46 43 40 39 38 38 39 40 42 44 43
231 231 228 219 215 215 212 207 198 187 190 192 184 181 183 170 151 144 134 125 127 130 127 120 115 112 112 112 109 107 105 102 103 105 105 105 107 115 129 141 140 126 116 114 128 157 156 146 142 138 129 118 108 101 95 86 75 68 59 42 38 44 45 39 35 32 31 30 33 36 39 42 43 41
227 227 222 206 197 201 197 188 183 181 180 177 171 167 159 140 129 128 127 126 126 126 124 122 119 115 113 111 109 107 104 101 101 101 103 105 106 107 108 113 115 111 107 111 130 162 164 146 137 148 149 135 123 115 106 98 90 78 57 40 38 41 38 30 25 24 23 23 27 34 38 39 39 38
225 216 204 189 179 182 183 177 173 171 167 161 153 142 132 127 126 126 127 128 128 126 125 123 119 114 112 110 107 106 104 101 100 99 100 100 101 102 101 98 95 92 93 104 127 156 171 157 143 145 149 145 141 128 107 108 120 117 54 45 42 36 29 20 16 15 13 14 21 30 33 31 33 35
216 200 182 172 171 174 173 168 162 157 150 142 136 132 128 127 127 128 129 130 130 128 125 119 113 107 104 102 101 101 101 99 97 96 96 94 88 86 89 90 88 85 82 85 97 114 143 152 142 136 135 142 141 120 112 125 136 118 53 39 28 21 18 15 10 8 7 10 18 23 23 23 28 31
184 179 168 162 164 165 160 152 146 140 135 133 131 129 126 125 128 133 135 135 134 130 125 118 112 107 103 100 99 99 102 104 105 101 94 86 79 71 71 78 84 85 80 76 82 95 100 107 119 128 129 114 93 91 112 129 124 90 50 28 14 12 15 13 9 8 8 10 15 14 15 21 25 26
138 150 153 151 149 146 141 136 130 126 127 129 129 126 125 128 137 142 142 139 135 127 121 116 111 108 109 111 112 114 115 114 116 117 107 91 87 76 54 46 56 62 59 59 76 105 108 89 92 107 110 97 86 87 106 119 101 71 44 30 25 22 18 13 10 9 8 5 2 2 8 12 11 10
105 119 128 131 130 127 125 124 122 122 126 128 127 128 132 137 142 143 141 137 130 121 118 116 111 110 114 122 132 140 133 120 119 128 136 129 119 106 26 11 28 32 25 27 50 90 114 106 100 98 96 97 91 86 87 83 63 47 36 31 29 26 22 15 9 6 4 357 343 339 345 350 352 359
108 107 113 117 118 118 118 120 122 125 127 127 128 132 136 139 140 140 137 133 126 120 119 117 114 113 116 120 129 143 141 127 124 135 148 148 145 158 304 349 32 33 21 22 44 80 111 123 122 115 110 107 94 78 55 43 44 37 29 25 22 18 18 16 11 9 2 347 334 333 341 347 349 356
120 115 114 114 114 116 118 121 125 129 129 130 132 134 135 137 138 139 138 133 130 131 131 126 125 127 122 117 121 133 139 135 137 151 166 164 171 227 287 37 64 57 46 45 56 80 107 124 125 122 125 126 105 69 15 17 33 28 20 18 15 13 15 17 16 14 7 358 358 2 3 6 6 5
119 118 117 116 116 119 121 125 128 131 132 133 134 135 136 137 138 139 140 139 142 150 156 154 155 155 141 128 126 127 127 131 140 159 177 184 199 240 296 59 67 59 52 53 57 69 95 119 130 130 131 135 130 359 355 15 25 22 18 19 19 19 21 23 20 17 16 19 17 11 11 16 18 19
118 118 118 118 121 123 125 128 130 132 134 135 135 136 137 136 137 138 138 141 149 157 160 156 154 156 153 143 136 125 117 123 140 150 157 166 171 174 49 68 69 61 55 57 59 63 87 124 148 156 149 143 204 353 16 24 26 23 20 24 27 26 26 26 24 17 16 18 17 17 23 26 25 25
117 119 120 122 126 127 128 130 132 133 135 135 135 137 136 135 138 140 141 148 158 161 158 153 150 154 158 152 142 126 109 121 153 160 155 154 151 139 100 78 70 62 54 55 57 61 83 124 149 165 162 148 123 59 34 31 30 24 19 22 27 27 26 26 23 14 12 16 19 23 26 25 24 26
120 123 125 126 129 130 129 131 131 132 132 131 132 135 135 137 142 145 149 158 164 161 157 155 149 147 155 161 151 122 102 112 144 157 150 144 148 149 128 90 70 59 52 52 55 60 79 114 130 136 133 113 84 63 54 42 30 22 21 23 25 26 28 26 20 14 15 14 16 20 21 18 20 24
121 125 125 126 128 129 128 129 129 127 126 128 131 133 135 137 140 145 153 161 163 158 155 152 147 145 154 176 205 137 93 104 127 144 147 145 145 143 136 113 81 67 63 62 66 72 82 96 100 97 90 70 56 57 69 64 41 28 30 31 29 29 27 20 13 15 12 2 0 14 15 10 13 21
120 125 127 128 129 129 128 128 127 125 124 126 129 131 134 137 139 145 152 156 160 162 163 160 156 154 157 164 184 192 128 103 108 124 139 144 141 137 140 144 123 81 66 67 76 80 79 78 71 60 50 49 52 62 74 70 57 47 46 50 53 42 22 7 1 3 4 359 357 10 11 7 12 18
123 127 129 130 130 130 129 126 123 121 120 122 123 123 124 129 138 148 150 149 151 157 160 159 154 145 134 131 134 137 122 95 84 94 114 131 140 140 142 158 179 210 355 52 83 82 74 72 66 54 38 34 38 69 87 75 83 101 89 77 72 33 8 360 357 358 1 2 355 357 6 9 3 352
125 125 126 127 126 125 123 120 117 114 112 111 108 103 101 107 123 141 147 145 144 145 146 146 144 137 132 133 130 121 103 74 49 49 74 112 148 156 151 156 175 213 316 83 93 83 75 71 65 45 20 13 2 249 111 84 126 149 141 104 68 17 1 358 355 350 346 336 320 313 333 350 345 338
126 122 119 117 115 113 111 109 108 107 105 98 89 82 81 93 116 143 154 154 152 149 145 142 141 138 136 131 120 105 85 63 46 42 55 78 142 177 183 181 171 142 115 112 102 94 96 96 77 17 347 1 355 325 45 81 135 163 171 176 188 245 340 348 347 339 329 323 317 309 310 315 316 323
123 118 115 114 112 109 107 105 104 101 96 88 77 66 65 81 114 142 153 156 157 153 146 138 133 133 128 115 99 84 72 62 53 42 36 43 66 180 201 197 176 150 135 131 126 122 127 122 87 29 17 26 18 4 23 73 145 182 200 246 300 316 329 340 345 335 318 313 321 332 339 338 330 330
122 121 122 123 121 117 115 114 111 104 96 88 74 52 46 69 114 137 146 150 152 150 146 141 139 136 126 117 116 109 93 76 50 11 357 1 8 10 238 199 190 179 168 163 163 163 165 170 173 15 25 27 12 351 5 57 121 188 277 336 345 348 347 345 344 332 309 302 319 345 356 355 346 339
134 136 137 136 133 132 131 129 124 115 101 82 48 27 28 56 122 148 152 150 147 146 146 148 153 152 140 137 152 138 86 56 13 351 346 342 338 338 351 359 203 197 189 184 187 191 191 195 212 27 31 27 15 7 30 85 86 37 15 3 359 359 356 352 349 343 326 328 344 352 352 349 345 341